STARLINK-35006 (65284 NORAD) Tracking and Keplerian Element Data

This shows tracking and keplerian element data for the satellite.

Feedback or suggestion? Click here.




ElementValue
Catalog65284
NameSTARLINK-35006
Epoch Orbit1933
Epoch Day354.1556074
Epoch Year2025
RAAN44.2662
Inclination97.6045
Eccentricity6.28E-05
Argument of Perigee147.9679
Mean Anonmoly212.1586
Mean Motion15.05678068
Decay Rate0.00023423
L11 65284U 25184M 25354.15560740 .00023423 00000+0 16210-2 0 9997
L22 65284 97.6045 44.2662 0000628 147.9679 212.1586 15.05678068 19338



Live tracking and technical data element details for STARLINK-35006 (NORAD 65284). STARLINK-35006 can be tracked NOW for your location showing map with azimuth and elevation plus other details from your city location.







IsCatalogInMostPopularTable: catalog: 65284, numindb: 3
Update: records affected: 1



GetName: 65284 STARLINK-35006

Hit Count: updated at: Tue, 10 Feb 2026 02:35:55 GMT